Location: ????????
(54.6123°N, 39.2099°E)
Time: 07:34:58
(UTC+00:00)

Cosmos 2084 Rocket - Pass Details

Date: 19 May 2025
Orbit: 543 x 578 km, 62.8° (Epoch: 23 June)

Event Time Altitude Azimuth Distance (km) Brightness Sun altitude
Rises 18:42:07 0° 196° (SSW) 2,778 6.5 -8.2°
Reaches altitude 10° 18:44:34 10° 184° (S) 1,881 5.6 -8.4°
Maximum altitude 18:48:13 28° 125° (SE) 1,080 4.3 -8.7°
Drops below altitude 10° 18:51:51 10° 66° (ENE) 1,877 5.9 -9.0°
Sets 18:54:17 0° 55° (NE) 2,772 6.9 -9.2°
